EW6196 Weather Reports


time (UTC)temp
F
wind
direction
speed
knots
gust
knots
rain 1hr
in
rain 24hr
in
rain mn
in
humidity
%
barometer
mb
20260906173836 77 132 0.0 1.7 0.00 0.00 0.00 74 1017.7
20260906170836 77 127 0.0 1.7 0.00 0.00 0.00 74 1017.8
20260906163836 76 124 0.0 1.7 0.00 0.00 0.00 76 1018.2
20260906160830 75 127 0.0 2.6 0.00 0.00 0.00 78 1018.3
20260906153830 74 131 0.0 1.7 0.00 0.00 0.00 81 1018.2
20260906150831 72 135 0.0 2.6 0.00 0.00 0.00 84 1018.6
20260906150551 71 138 0.0 3.5 0.00 0.00 0.00 84 1018.3
20260906140823 71 209 0.0 1.7 0.00 0.00 0.00 85 1018.4
20260906133824 71 127 0.0 7.8 0.00 0.00 0.00 86 1018.1
20260906130822 70 124 0.0 6.1 0.00 0.00 0.00 87 1017.8
20260906125158 70 157 0.0 0.9 0.00 0.00 0.00 87 1017.8
20260906120822 70 164 0.0 1.7 0.00 0.00 0.00 87 1017.6
20260906113822 70 165 0.0 0.0 0.00 0.00 0.00 86 1017.5
20260906110822 70 177 0.0 1.7 0.00 0.00 0.00 86 1017.0
20260906103820 71 177 0.0 1.7 0.00 0.00 0.00 86 1017.1
20260906100819 71 178 0.0 3.5 0.00 0.00 0.00 85 1016.9
20260906093819 72 126 0.0 1.7 0.00 0.00 0.00 85 1016.2
20260906090813 72 107 0.0 2.6 0.00 0.00 0.00 85 1016.3
20260906083811 72 71 0.0 3.5 0.00 0.00 0.00 84 1016.2
20260906080811 72 57 0.0 0.9 0.00 0.00 0.00 83 1016.1
20260906073810 73 55 0.0 0.0 0.00 0.00 0.00 83 1016.4
20260906072208 74 55 0.0 0.0 0.00 0.00 0.00 82 1016.6
20260906063808 74 54 0.0 0.9 0.00 0.00 0.00 81 1016.5
20260906060809 75 53 0.0 0.9 0.00 0.00 0.00 81 1016.8
20260906053809 75 66 0.0 0.9 0.00 0.00 0.00 80 1016.6
20260906050809 75 99 0.0 0.0 0.00 0.00 0.00 80 1016.7
20260906043809 75 99 0.0 0.0 0.00 0.00 0.00 80 1016.8
20260906040809 75 99 0.0 0.0 0.00 0.00 0.00 79 1016.8
20260906033806 76 99 0.0 0.0 0.00 0.00 0.00 77 1016.9
20260906030806 77 100 0.0 0.0 0.00 0.00 0.00 75 1017.0
20260906023806 77 100 0.0 0.9 0.00 0.00 0.00 74 1016.8
20260906022158 77 99 0.0 0.9 0.00 0.00 0.00 73 1016.2
20260906013803 78 249 0.0 1.7 0.00 0.00 0.00 72 1015.3
20260906010803 79 242 0.0 3.5 0.00 0.00 0.00 72 1014.9
20260906003804 81 125 0.0 1.7 0.00 0.00 0.00 66 1014.3
20260906000800 83 120 0.0 1.7 0.00 0.00 0.00 62 1014.3
20260905235132 85 140 0.0 1.7 0.00 0.00 0.00 56 1013.9
20260905230755 88 101 0.0 1.7 0.00 0.00 0.00 55 1013.7
20260905223755 88 81 0.0 1.7 0.00 0.00 0.00 55 1013.7
20260905220750 88 123 0.0 1.7 0.00 0.00 0.00 56 1013.8
20260905213749 90 65 0.0 0.0 0.00 0.00 0.00 51 1013.8
20260905210750 87 117 0.0 0.0 0.00 0.00 0.00 57 1013.9
20260905203743 85 132 0.0 0.9 0.00 0.00 0.00 62 1014.9
20260905200743 85 137 0.0 0.9 0.00 0.00 0.00 61 1015.5
20260905193742 86 190 0.0 0.0 0.00 0.00 0.00 61 1015.8
20260905190737 85 229 0.0 0.0 0.00 0.00 0.00 64 1015.8
20260905183737 82 216 0.0 0.0 0.00 0.00 0.00 68 1016.0
20260905182118 80 109 0.0 0.9 0.00 0.00 0.00 72 1016.2